Picayune, MS

18:52 CDT le 28 septembre 2016 (GMT -0500)
Hide_A_Way Lake ~OWX | | Change Station

Alt. 100 ft 30.58 °N, 89.65 °W | Updated 7 seconds ago

Clear
Ciel dégagé
80.1 ° F
Paraît 84 ° F
N
0.0
Vent Variable Vent de ONO
Gusts 0.0 mph

Aujourd'hui
Haut(e) -- | Bas -- ° F
--% Risque de précip.
Hier
Haut(e) -- | Bas -- ° F
Precip. -- pouce
Pression 29.96 pouce
Visibilité 10.0 Miles terrestres
Nuages Ciel dégagé
indice de chaleur 84 ° F
Point de rosée 72 ° F
Humidité 76%
Précipitations pouce
Profondeur de la couche neigeuse Non disponible.
6:50 AM 6:47 PM
Lune descendante, 4% visible
METAR KASD 282253Z AUTO VRB03KT 10SM CLR 29/19 A2996 RMK AO2 SLP145 T02940194
Pression 29.96 pouce
Visibilité 10.0 Miles terrestres
Nuages Ciel dégagé
indice de chaleur 84 ° F
Point de rosée 72 ° F
Humidité 76%
Précipitations pouce
Profondeur de la couche neigeuse Non disponible.
6:50 AM 6:47 PM
Lune descendante, 4% visible
METAR KASD 282253Z AUTO VRB03KT 10SM CLR 29/19 A2996 RMK AO2 SLP145 T02940194

10-Day Weather Forecast

Almanac

Astronomie

Sep. 28, 2016 Lever Coucher
Temps réel
Crépuscule civil
Crépuscule nautique
Crépuscule astronomique
Lune
Durée de lumière visible
Longueur du jour
Tomorrow will be .
, % of the Moon is Illuminated

Extrêmes aujourd'hui

State Highs State Lows

Community

WunderPhotos

Upload Photos

1,942,354 Photos téléchargées !

WunderBlog® & News

Nearby

Qualité de l'air

  Qualité de l'air Indice de la qualité de l'air Polluant
Not available.

Épaisseur de neige

Station Depth Altitude

Activité sismique

Ville Distance Mag. Time & Date
Minimum magnitude displayed is 2.5.

Températures des eaux côtières

Lieu Température

Stations

Stations météo à proximité

Emplacement de la station Température Refroidissement éolien Point de rosée Humidité Vent Precip. Alt. Mise à jour Type
                   

Watches & Warnings

There are currently no watches in effect.